Flag Weather past 2 weeks in Achern, Baden-Württemberg, Germany

Now
37 °F

Clear.


Feels Like: 29 °F
Forecast: 36 / 43 °F
Wind: 14 mph from Northeast

Location: Karlsruhe - Baden Wurttemberg

Current Time: Nov 28, 2014 at 9:51:36 PM

Latest Report: Nov 28, 2014 at 8:50 PM


Visibility: 10 mi

Pressure: 29.83 "Hg

Humidity: 87%

Dew point: 34 °F

Location of AchernLocation

Historic Weather in Achern — Graph

°F

Achern temperature yesterday

Maximum temperature yesterday: 45 °F (at 12:20 PM)
Minimum temperature yesterday: 41 °F (at 4:20 AM)
Average temperature yesterday: 43 °F

Past Weeks' High & Low Weather Summary

 TemperatureHumidityPressure
High55 °F (Nov 16, 1:20 PM)100% (Nov 14, 5:20 AM)30.30 "Hg (Nov 14, 5:20 AM)
Low36 °F (Nov 24, 7:20 AM)67% (Nov 16, 3:20 PM)29.56 "Hg (Nov 15, 10:50 PM)
Average45 °F89%29.95 "Hg
* Reported Nov 13 8:20 PM — Nov 28 8:50 PM, Achern, Weather by CustomWeather, © 2014

Note: Actual official high and low records may vary slightly from our data, if they occured in-between our weather recording intervals... More about our weather records

Advertising

Achern weather history for previous 24 hours

 ConditionsComfort  
Time TempWeatherWind HumidityBarometerVisibility
8:50 PM
Nov 28
37 °FClear.14 mph87%29.83 "Hg10 mi
8:20 PM37 °FClear.14 mph87%29.83 "Hg10 mi
7:50 PM37 °FClear.13 mph87%29.83 "Hg10 mi
7:20 PM37 °FClear.16 mph87%29.80 "Hg10 mi
6:50 PM39 °FClear.15 mph81%29.80 "Hg5 mi
6:20 PM39 °FClear.16 mph81%29.80 "Hg5 mi
5:50 PM39 °FClear.15 mph81%29.80 "Hg5 mi
5:20 PM39 °FClear.17 mph81%29.77 "Hg5 mi
4:50 PM39 °FClear.17 mph81%29.77 "Hg4 mi
4:20 PM39 °FClear.17 mph81%29.77 "Hg4 mi
3:50 PM39 °FClear.14 mph81%29.77 "Hg6 mi
3:20 PM41 °FSunny.14 mph76%29.77 "Hg10 mi
2:50 PM41 °FSunny.15 mph76%29.77 "Hg10 mi
2:20 PM41 °FSunny.16 mph81%29.77 "Hg10 mi
1:50 PM43 °FSunny.17 mph76%29.77 "Hg10 mi
1:20 PM43 °FPassing clouds.16 mph76%29.77 "HgN/A
12:50 PM43 °FSunny.16 mph76%29.77 "Hg10 mi
12:20 PM43 °FSunny.16 mph81%29.77 "Hg10 mi
11:50 AM43 °FPassing clouds.13 mph81%29.80 "HgN/A
11:20 AM43 °FScattered clouds.10 mph81%29.80 "Hg6 mi
10:50 AM43 °FScattered clouds.8 mph81%29.80 "Hg6 mi
10:20 AM41 °FScattered clouds.9 mph87%29.80 "Hg6 mi
9:50 AM41 °FPartly sunny.9 mph87%29.80 "Hg6 mi
9:20 AM39 °FPartly sunny.9 mph87%29.80 "Hg6 mi
8:50 AM41 °FPartly sunny.9 mph87%29.80 "Hg6 mi
8:20 AM41 °FPartly sunny.8 mph87%29.77 "Hg5 mi
7:50 AM41 °FPassing clouds.9 mph87%29.77 "Hg5 mi
7:20 AM41 °FPassing clouds.10 mph87%29.77 "HgN/A
6:50 AM41 °FPassing clouds.9 mph87%29.77 "Hg6 mi
6:20 AM41 °FPassing clouds.9 mph87%29.77 "Hg6 mi
5:50 AM41 °FFog.10 mph93%29.77 "Hg5 mi
5:20 AM41 °FFog.7 mph93%29.77 "Hg3 mi
4:50 AM41 °FFog.7 mph93%29.77 "Hg2 mi
10:50 PM
Nov 27
41 °FPassing clouds.2 mph93%29.80 "Hg4 mi
10:20 PM41 °FPartly cloudy.No wind93%29.80 "Hg4 mi
9:50 PM41 °FPassing clouds.1 mph93%29.80 "Hg5 mi
9:20 PM41 °FPartly cloudy.1 mph87%29.80 "Hg6 mi
Weather by CustomWeather, © 2014

See weather overviewHow to use our weather pages